TimeCDT,TemperatureF,Dew PointF,Humidity,Sea Level PressureIn,VisibilityMPH,Wind Direction,Wind SpeedMPH,Gust SpeedMPH,PrecipitationIn,Events,Conditions,WindDirDegrees,DateUTC
12:53 AM,64.9,62.1,90,29.88,10.0,NNW,4.6,-,N/A,,Clear,330,2013-07-01 05:53:00
1:53 AM,66.0,61.0,84,29.87,10.0,NW,4.6,-,N/A,,Clear,320,2013-07-01 06:53:00
2:53 AM,66.0,61.0,84,29.87,10.0,NW,3.5,-,N/A,,Clear,320,2013-07-01 07:53:00
3:53 AM,64.0,61.0,90,29.88,10.0,NW,3.5,-,N/A,,Clear,310,2013-07-01 08:53:00
4:53 AM,63.0,60.1,90,29.89,10.0,NW,4.6,-,N/A,,Clear,320,2013-07-01 09:53:00
5:53 AM,62.1,60.1,93,29.90,10.0,NNW,5.8,-,N/A,,Clear,330,2013-07-01 10:53:00
6:53 AM,64.0,61.0,90,29.91,10.0,NNW,5.8,-,N/A,,Clear,340,2013-07-01 11:53:00
7:53 AM,69.1,62.1,78,29.94,10.0,NNW,6.9,-,N/A,,Clear,340,2013-07-01 12:53:00
8:53 AM,72.0,62.1,71,29.94,10.0,North,8.1,-,N/A,,Clear,350,2013-07-01 13:53:00
9:53 AM,75.9,62.1,62,29.95,10.0,NNW,5.8,-,N/A,,Clear,330,2013-07-01 14:53:00
10:53 AM,77.0,62.1,60,29.95,10.0,WNW,6.9,-,N/A,,Scattered Clouds,290,2013-07-01 15:53:00
11:53 AM,79.0,61.0,54,29.95,10.0,WNW,9.2,16.1,N/A,,Mostly Cloudy,300,2013-07-01 16:53:00
12:53 PM,81.0,62.1,52,29.94,10.0,NNW,9.2,-,N/A,,Mostly Cloudy,330,2013-07-01 17:53:00
1:53 PM,82.9,61.0,47,29.93,10.0,North,6.9,-,N/A,,Partly Cloudy,350,2013-07-01 18:53:00
2:53 PM,81.0,62.1,52,29.93,10.0,NNW,8.1,-,N/A,,Mostly Cloudy,340,2013-07-01 19:53:00
3:53 PM,86.0,61.0,43,29.91,10.0,North,10.4,-,N/A,,Scattered Clouds,350,2013-07-01 20:53:00
4:53 PM,82.0,60.1,47,29.91,10.0,NNW,9.2,-,N/A,,Scattered Clouds,340,2013-07-01 21:53:00
5:53 PM,84.9,61.0,44,29.90,10.0,Variable,6.9,-,N/A,,Clear,0,2013-07-01 22:53:00
6:53 PM,84.0,60.1,44,29.91,10.0,North,5.8,-,N/A,,Clear,350,2013-07-01 23:53:00
7:53 PM,79.0,64.9,62,29.92,10.0,Calm,Calm,-,N/A,,Clear,0,2013-07-02 00:53:00
8:53 PM,71.1,64.0,78,29.93,10.0,Calm,Calm,-,N/A,,Clear,0,2013-07-02 01:53:00
9:53 PM,69.1,63.0,81,29.95,10.0,Calm,Calm,-,N/A,,Partly Cloudy,0,2013-07-02 02:53:00
10:53 PM,68.0,63.0,84,29.96,10.0,Calm,Calm,-,N/A,,Scattered Clouds,0,2013-07-02 03:53:00
11:53 PM,70.0,64.9,84,29.96,10.0,Calm,Calm,-,N/A,,Scattered Clouds,0,2013-07-02 04:53:00